JA1KWV-11 Weather Reports


Display with metric or nautical units.
time (UTC)temp
F
wind
direction
speed
MPH
gust
MPH
rain 1hr
in
rain 24hr
in
rain mn
in
humidity
%
barometer
mb
20260903114138 85 267 0.0 0.0 0.00 0.00 0.00 86 1011.1
20260903113338 85 267 0.0 0.0 0.00 0.00 0.00 84 1010.9
20260903112537 85 267 0.0 0.0 0.00 0.00 0.00 85 1010.8
20260903111737 85 267 0.0 0.0 0.00 0.00 0.00 85 1010.8
20260903110937 85 267 0.0 0.0 0.00 0.00 0.00 85 1011.0
20260903110137 85 267 0.0 0.0 0.00 0.00 0.00 84 1010.8
20260903105336 85 267 0.0 0.0 0.00 0.00 0.00 86 1010.7
20260903104536 85 267 0.0 0.0 0.00 0.00 0.00 86 1010.7
20260903103736 85 267 0.0 0.0 0.00 0.00 0.00 85 1010.5
20260903102936 85 267 0.0 0.0 0.00 0.00 0.00 84 1010.4
20260903102136 85 267 0.0 0.0 0.00 0.00 0.00 84 1010.2
20260903101335 85 267 0.0 0.0 0.00 0.00 0.00 83 1010.3
20260903100535 86 267 0.0 0.0 0.00 0.00 0.00 82 1010.1
20260903095735 85 267 0.0 0.0 0.00 0.00 0.00 83 1009.9
20260903094935 86 267 0.0 0.0 0.00 0.00 0.00 84 1010.2
20260903094134 86 267 0.0 0.0 0.00 0.00 0.00 84 1010.2
20260903093334 86 267 0.0 0.0 0.00 0.00 0.00 84 1009.9
20260903092534 86 267 0.0 0.0 0.00 0.00 0.00 82 1010.2
20260903091734 86 267 0.0 0.0 0.00 0.00 0.00 85 1010.0
20260903090934 86 267 0.0 0.0 0.00 0.00 0.00 83 1009.8
20260903090133 86 267 0.0 0.0 0.00 0.00 0.00 82 1010.3
20260903085333 86 267 0.0 0.0 0.00 0.00 0.00 84 1010.7
20260903084533 86 267 0.0 0.0 0.00 0.00 0.00 83 1010.8
20260903083733 86 267 0.0 0.0 0.00 0.00 0.00 83 1010.3
20260903082933 86 267 0.0 0.0 0.00 0.00 0.00 81 1010.4
20260903082132 86 267 0.0 0.0 0.00 0.00 0.00 83 1011.1
20260903081332 86 267 0.0 0.0 0.00 0.00 0.00 84 1011.1
20260903080532 86 267 0.0 0.0 0.00 0.00 0.00 84 1011.5
20260903075732 86 267 0.0 0.0 0.00 0.00 0.00 85 1011.4
20260903074931 86 267 0.0 0.0 0.00 0.00 0.00 85 1010.2
20260903074131 86 267 0.0 0.0 0.00 0.00 0.00 83 1009.8
20260903073331 86 267 0.0 0.0 0.00 0.00 0.00 85 1010.7
20260903072531 86 267 0.0 0.0 0.00 0.00 0.00 83 1010.8
20260903071731 86 267 0.0 0.0 0.00 0.00 0.00 86 1010.9
20260903070930 86 267 0.0 0.0 0.00 0.00 0.00 85 1011.3
20260903070130 86 267 0.0 0.0 0.00 0.00 0.00 87 1011.9
20260903065330 86 267 0.0 0.0 0.00 0.00 0.00 88 1011.8
20260903064530 87 267 0.0 0.0 0.00 0.00 0.00 90 1011.4
20260903063730 87 267 0.0 0.0 0.00 0.00 0.00 92 1011.3
20260903062929 87 267 0.0 0.0 0.00 0.00 0.00 94 1011.0
20260903062129 87 267 0.0 0.0 0.00 0.00 0.00 93 1010.4
20260903061329 87 267 0.0 0.0 0.00 0.00 0.00 94 1008.8
20260903060529 87 267 0.0 0.0 0.00 0.00 0.00 93 1009.2
20260903055728 87 267 0.0 0.0 0.00 0.00 0.00 93 1009.9
20260903054928 87 267 0.0 0.0 0.00 0.00 0.00 92 1010.0
20260903054128 87 267 0.0 0.0 0.00 0.00 0.00 93 1010.2
20260903053328 87 267 0.0 0.0 0.00 0.00 0.00 94 1010.2
20260903052527 87 267 0.0 0.0 0.00 0.00 0.00 93 1010.1
20260903051727 87 267 0.0 0.0 0.00 0.00 0.00 93 1010.3
20260903050927 87 267 0.0 0.0 0.00 0.00 0.00 91 1010.1
20260903050127 87 267 0.0 0.0 0.00 0.00 0.00 93 1010.1
20260903045327 87 267 0.0 0.0 0.00 0.00 0.00 94 1010.0
20260903044526 87 267 0.0 0.0 0.00 0.00 0.00 92 1010.0
20260903043726 87 267 0.0 0.0 0.00 0.00 0.00 93 1009.6
20260903042926 86 267 0.0 0.0 0.00 0.00 0.00 92 1009.8
20260903042126 86 267 0.0 0.0 0.00 0.00 0.00 92 1009.9
20260903041324 86 267 0.0 0.0 0.00 0.00 0.00 92 1009.5
20260903040524 86 267 0.0 0.0 0.00 0.00 0.00 91 1009.3
20260903035724 86 267 0.0 0.0 0.00 0.00 0.00 91 1010.1
20260903034924 86 267 0.0 0.0 0.00 0.00 0.00 90 1010.1
20260903034124 86 267 0.0 0.0 0.00 0.00 0.00 90 1010.1
20260903033323 86 267 0.0 0.0 0.00 0.00 0.00 88 1009.9
20260903032523 86 267 0.0 0.0 0.00 0.00 0.00 89 1010.1
20260903031723 86 267 0.0 0.0 0.00 0.00 0.00 87 1010.1
20260903030923 86 267 0.0 0.0 0.00 0.00 0.00 88 1010.2
20260903030123 86 267 0.0 0.0 0.00 0.00 0.00 90 1010.1
20260903025322 86 267 0.0 0.0 0.00 0.00 0.00 90 1010.1
20260903024522 86 267 0.0 0.0 0.00 0.00 0.00 92 1010.1
20260903023722 86 267 0.0 0.0 0.00 0.00 0.00 91 1010.1
20260903022922 86 267 0.0 0.0 0.00 0.00 0.00 93 1009.9
20260903022121 86 267 0.0 0.0 0.00 0.00 0.00 92 1010.1
20260903021321 86 267 0.0 0.0 0.00 0.00 0.00 91 1010.3
20260903020521 86 267 0.0 0.0 0.00 0.00 0.00 92 1010.0
20260903015721 86 267 0.0 0.0 0.00 0.00 0.00 92 1010.3
20260903014921 86 267 0.0 0.0 0.00 0.00 0.00 91 1010.4
20260903014120 86 267 0.0 0.0 0.00 0.00 0.00 91 1010.4
20260903013320 86 267 0.0 0.0 0.00 0.00 0.00 91 1010.6
20260903012520 86 267 0.0 0.0 0.00 0.00 0.00 91 1010.5
20260903011720 86 267 0.0 0.0 0.00 0.00 0.00 90 1010.4
20260903010919 86 267 0.0 0.0 0.00 0.00 0.00 91 1010.5
20260903010119 86 267 0.0 0.0 0.00 0.00 0.00 90 1010.5
20260903005320 86 267 0.0 0.0 0.00 0.00 0.00 89 1010.5
20260903004519 86 267 0.0 0.0 0.00 0.00 0.00 89 1010.6
20260903003719 86 267 0.0 0.0 0.00 0.00 0.00 89 1010.5
20260903002918 86 267 0.0 0.0 0.00 0.00 0.00 86 1010.3
20260903002118 86 267 0.0 0.0 0.00 0.00 0.00 86 1010.4
20260903001318 86 267 0.0 0.0 0.00 0.00 0.00 85 1010.5
20260903000518 86 267 0.0 0.0 0.00 0.00 0.00 85 1010.5
20260902235717 86 267 0.0 0.0 0.00 0.00 0.00 88 1010.7
20260902234917 86 267 0.0 0.0 0.00 0.00 0.00 86 1010.6
20260902234117 86 267 0.0 0.0 0.00 0.00 0.00 88 1010.7
20260902233317 86 267 0.0 0.0 0.00 0.00 0.00 91 1011.1
20260902232517 86 267 0.0 0.0 0.00 0.00 0.00 90 1010.5
20260902231716 86 267 0.0 0.0 0.00 0.00 0.00 93 1010.7
20260902230916 86 267 0.0 0.0 0.00 0.00 0.00 93 1010.7
20260902230116 86 267 0.0 0.0 0.00 0.00 0.00 93 1010.8
20260902225316 86 267 0.0 0.0 0.00 0.00 0.00 92 1010.9
20260902224516 86 267 0.0 0.0 0.00 0.00 0.00 93 1010.8
20260902223715 86 267 0.0 0.0 0.00 0.00 0.00 92 1010.7
20260902222915 86 267 0.0 0.0 0.00 0.00 0.00 93 1010.6
20260902222115 86 267 0.0 0.0 0.00 0.00 0.00 92 1010.5
20260902221315 86 267 0.0 0.0 0.00 0.00 0.00 92 1010.2
20260902220514 86 267 0.0 0.0 0.00 0.00 0.00 92 1010.3
20260902215714 86 267 0.0 0.0 0.00 0.00 0.00 92 1010.4
20260902214914 86 267 0.0 0.0 0.00 0.00 0.00 92 1010.5
20260902214114 86 267 0.0 0.0 0.00 0.00 0.00 92 1010.4
20260902213314 86 267 0.0 0.0 0.00 0.00 0.00 92 1010.3
20260902212513 86 267 0.0 0.0 0.00 0.00 0.00 92 1010.6
20260902211713 86 267 0.0 0.0 0.00 0.00 0.00 92 1010.8
20260902210913 86 267 0.0 0.0 0.00 0.00 0.00 92 1011.0
20260902210113 86 267 0.0 0.0 0.00 0.00 0.00 92 1010.9
20260902205312 86 267 0.0 0.0 0.00 0.00 0.00 92 1010.9
20260902204512 86 267 0.0 0.0 0.00 0.00 0.00 92 1010.6
20260902203712 86 267 0.0 0.0 0.00 0.00 0.00 91 1010.7
20260902202912 86 267 0.0 0.0 0.00 0.00 0.00 92 1010.6
20260902202111 86 267 0.0 0.0 0.00 0.00 0.00 91 1010.6
20260902201311 86 267 0.0 0.0 0.00 0.00 0.00 91 1010.8
20260902200511 86 267 0.0 0.0 0.00 0.00 0.00 92 1011.1
20260902195711 86 267 0.0 0.0 0.00 0.00 0.00 92 1011.1
20260902194910 86 267 0.0 0.0 0.00 0.00 0.00 92 1011.1
20260902194110 86 267 0.0 0.0 0.00 0.00 0.00 92 1011.0
20260902193310 86 267 0.0 0.0 0.00 0.00 0.00 91 1011.0
20260902192510 86 267 0.0 0.0 0.00 0.00 0.00 91 1011.5
20260902191710 86 267 0.0 0.0 0.00 0.00 0.00 92 1011.4
20260902190909 86 267 0.0 0.0 0.00 0.00 0.00 90 1011.7
20260902190109 86 267 0.0 0.0 0.00 0.00 0.00 92 1011.6
20260902185309 86 267 0.0 0.0 0.00 0.00 0.00 91 1011.7
20260902184509 86 267 0.0 0.0 0.00 0.00 0.00 90 1011.5
20260902183709 86 267 0.0 0.0 0.00 0.00 0.00 91 1011.3
20260902182908 86 267 0.0 0.0 0.00 0.00 0.00 91 1011.1
20260902182108 86 267 0.0 0.0 0.00 0.00 0.00 91 1011.4
20260902181308 86 267 0.0 0.0 0.00 0.00 0.00 91 1011.4
20260902180508 86 267 0.0 0.0 0.00 0.00 0.00 91 1011.7
20260902175707 86 267 0.0 0.0 0.00 0.00 0.00 91 1011.8
20260902174907 86 267 0.0 0.0 0.00 0.00 0.00 91 1011.8
20260902174107 86 267 0.0 0.0 0.00 0.00 0.00 90 1011.9
20260902173307 86 267 0.0 0.0 0.00 0.00 0.00 90 1011.8
20260902172507 86 267 0.0 0.0 0.00 0.00 0.00 89 1012.1
20260902171706 86 267 0.0 0.0 0.00 0.00 0.00 89 1011.9
20260902170906 86 267 0.0 0.0 0.00 0.00 0.00 90 1012.1
20260902170106 86 267 0.0 0.0 0.00 0.00 0.00 88 1012.1
20260902165309 86 267 0.0 0.0 0.00 0.00 0.00 87 1012.0
20260902164505 86 267 0.0 0.0 0.00 0.00 0.00 87 1012.1
20260902163705 86 267 0.0 0.0 0.00 0.00 0.00 85 1012.0
20260902162905 86 267 0.0 0.0 0.00 0.00 0.00 86 1011.8
20260902162105 86 267 0.0 0.0 0.00 0.00 0.00 84 1012.1
20260902161305 86 267 0.0 0.0 0.00 0.00 0.00 87 1012.2
20260902160504 86 267 0.0 0.0 0.00 0.00 0.00 84 1012.2
20260902155704 86 267 0.0 0.0 0.00 0.00 0.00 88 1012.3
20260902154904 86 267 0.0 0.0 0.00 0.00 0.00 85 1012.4
20260902154104 86 267 0.0 0.0 0.00 0.00 0.00 89 1012.4
20260902153304 86 267 0.0 0.0 0.00 0.00 0.00 87 1012.6
20260902152503 86 267 0.0 0.0 0.00 0.00 0.00 90 1012.6
20260902151703 86 267 0.0 0.0 0.00 0.00 0.00 92 1012.6
20260902150903 86 267 0.0 0.0 0.00 0.00 0.00 89 1012.6
20260902145305 86 267 0.0 0.0 0.00 0.00 0.00 91 1012.8
20260902144502 86 267 0.0 0.0 0.00 0.00 0.00 87 1012.8
20260902143702 86 267 0.0 0.0 0.00 0.00 0.00 89 1012.8
20260902142902 86 267 0.0 0.0 0.00 0.00 0.00 90 1012.9
20260902142102 86 267 0.0 0.0 0.00 0.00 0.00 88 1012.9
20260902141301 86 267 0.0 0.0 0.00 0.00 0.00 89 1013.0
20260902140501 86 267 0.0 0.0 0.00 0.00 0.00 89 1012.9
20260902135701 86 267 0.0 0.0 0.00 0.00 0.00 88 1012.8
20260902134901 86 267 0.0 0.0 0.00 0.00 0.00 89 1012.9
20260902134100 86 267 0.0 0.0 0.00 0.00 0.00 89 1012.9
20260902133300 87 267 0.0 0.0 0.00 0.00 0.00 88 1013.0
20260902132500 87 267 0.0 0.0 0.00 0.00 0.00 89 1012.9
20260902131700 87 267 0.0 0.0 0.00 0.00 0.00 88 1012.9
20260902130900 87 267 0.0 0.0 0.00 0.00 0.00 89 1012.9
20260902130059 86 267 0.0 0.0 0.00 0.00 0.00 89 1012.9
20260902125259 87 267 0.0 0.0 0.00 0.00 0.00 89 1013.0
20260902124459 87 267 0.0 0.0 0.00 0.00 0.00 89 1013.1
20260902123659 87 267 0.0 0.0 0.00 0.00 0.00 89 1013.1
20260902122858 87 267 0.0 0.0 0.00 0.00 0.00 89 1013.1
20260902122058 87 267 0.0 0.0 0.00 0.00 0.00 89 1013.1
20260902121258 87 267 0.0 0.0 0.00 0.00 0.00 90 1013.3
20260902120458 87 267 0.0 0.0 0.00 0.00 0.00 89 1013.1
20260902115658 87 267 0.0 0.0 0.00 0.00 0.00 89 1013.3
20260902114857 87 267 0.0 0.0 0.00 0.00 0.00 90 1013.4